Tracking 19827 objects as of 22-Aug-2019
HD Live streaming from Space Station
objects crossing your sky now

FENGYUN 1C DEB

Track FENGYUN 1C DEB now!
10-day predictions


NORAD ID: 31643
Int'l Code: 1999-025CAZ
Perigee: 833.7 km
Apogee: 983.0 km
Inclination: 98.3 °
Period: 103.0 minutes
Semi major axis: 7279 km
RCS: 0.0065 m2 (small)
Launch date: May 10, 1999
Source: People's Republic of China (PRC)
Launch site: Taiyaun Space Center, China (TSC)

Note: This is SATELLITE DEBRIS
aabbcc
Your satellite tracking list
Your tracking list is empty




NASA's NSSDC Master Catalog

Two Line Element Set (TLE):
1 31643U 99025CAZ 19216.82462133  .00000384  00000-0  28562-3 0  9991
2 31643  98.3438 200.3118 0102533 359.9056 116.5830 13.97862546623871
Source of the keplerian elements: AFSPC